When you browse on this site, cookies collect data to enhance your experience and personalize the content and advertising you see.
Visit our Privacy Policy to learn more. By continuing to use the site, you agree to this use of cookies and data.
  • în România
  • Lista ţărilor
  • Pe 7 zile
  • Temperatura apei
  • Meteo pe hartă
  • Widget-uri
  • user-avatar
    Intrare

    Meteo pe oră la Vatican

    Astăzi, 28 Februarie, Vineri

    Timp Temperatura Precipitaţii Vânt Presiune Umiditate
    00:00 +12°C° 0.1 mm 10 m/s 756 mmHg 75%
    01:00 +12°C° 0 mm 11 m/s 755 mmHg 79%
    02:00 +12°C° 0.2 mm 10 m/s 755 mmHg 80%
    03:00 +12°C° 0.2 mm 10 m/s 755 mmHg 81%
    04:00 +12°C° 0.2 mm 10 m/s 754 mmHg 82%
    05:00 +12°C° 0.1 mm 10 m/s 755 mmHg 78%
    06:00 +11°C° 0.1 mm 10 m/s 756 mmHg 74%
    07:00 +11°C° 0.1 mm 9 m/s 756 mmHg 69%
    08:00 +12°C° 0 mm 9 m/s 757 mmHg 62%
    09:00 +13°C° 0 mm 9 m/s 758 mmHg 54%
    10:00 +15°C° 0 mm 8 m/s 758 mmHg 46%
    11:00 +15°C° 0 mm 8 m/s 759 mmHg 40%
    12:00 +16°C° 0 mm 7 m/s 759 mmHg 35%
    13:00 +16°C° 0 mm 6 m/s 760 mmHg 29%
    14:00 +16°C° 0 mm 6 m/s 760 mmHg 31%
    15:00 +16°C° 0 mm 6 m/s 760 mmHg 34%
    16:00 +16°C° 0 mm 7 m/s 760 mmHg 37%
    17:00 +15°C° 0 mm 6 m/s 761 mmHg 40%
    18:00 +14°C° 0 mm 5 m/s 761 mmHg 43%
    19:00 +13°C° 0 mm 4 m/s 762 mmHg 46%
    20:00 +12°C° 0 mm 5 m/s 763 mmHg 48%
    21:00 +12°C° 0 mm 5 m/s 763 mmHg 50%
    22:00 +12°C° 0 mm 5 m/s 764 mmHg 53%
    23:00 +10°C° 0 mm 6 m/s 764 mmHg 53%

    Mâine, 29 Februarie, Sâmbătă

    Timp Temperatura Precipitaţii Vânt Presiune Umiditate
    00:00 +10°C° 0 mm 6 m/s 764 mmHg 54%
    01:00 +9°C° 0 mm 7 m/s 764 mmHg 55%
    02:00 +9°C° 0 mm 7 m/s 763 mmHg 54%
    03:00 +9°C° 0 mm 7 m/s 763 mmHg 53%
    04:00 +9°C° 0 mm 6 m/s 762 mmHg 53%
    05:00 +8°C° 0 mm 6 m/s 762 mmHg 52%
    06:00 +8°C° 0 mm 6 m/s 762 mmHg 52%
    07:00 +8°C° 0 mm 6 m/s 762 mmHg 52%
    08:00 +9°C° 0 mm 7 m/s 762 mmHg 51%
    09:00 +10°C° 0 mm 7 m/s 762 mmHg 50%
    10:00 +11°C° 0 mm 8 m/s 761 mmHg 49%
    11:00 +12°C° 0 mm 8 m/s 761 mmHg 52%
    12:00 +12°C° 0 mm 8 m/s 761 mmHg 54%
    13:00 +13°C° 0 mm 8 m/s 760 mmHg 57%
    14:00 +13°C° 0 mm 9 m/s 760 mmHg 58%
    15:00 +12°C° 0 mm 9 m/s 759 mmHg 60%
    16:00 +12°C° 0 mm 9 m/s 759 mmHg 62%
    17:00 +12°C° 0 mm 9 m/s 759 mmHg 65%
    18:00 +11°C° 0 mm 9 m/s 759 mmHg 69%
    19:00 +11°C° 0 mm 8 m/s 759 mmHg 72%
    20:00 +11°C° 0 mm 8 m/s 759 mmHg 75%
    21:00 +11°C° 0 mm 8 m/s 758 mmHg 78%
    22:00 +11°C° 0 mm 8 m/s 758 mmHg 81%
    23:00 +11°C° 0.1 mm 8 m/s 758 mmHg 80%

    Poimâine, 1 Martie, Duminică

    Timp Temperatura Precipitaţii Vânt Presiune Umiditate
    00:00 +11°C° 0.1 mm 9 m/s 758 mmHg 79%
    01:00 +12°C° 0.1 mm 9 m/s 757 mmHg 79%
    02:00 +12°C° 0 mm 10 m/s 757 mmHg 78%
    03:00 +12°C° 0 mm 10 m/s 756 mmHg 78%
    04:00 +12°C° 0 mm 10 m/s 756 mmHg 77%
    05:00 +12°C° 0 mm 10 m/s 756 mmHg 78%
    06:00 +12°C° 0 mm 10 m/s 756 mmHg 80%
    07:00 +12°C° 0 mm 10 m/s 755 mmHg 81%
    08:00 +12°C° 0 mm 9 m/s 755 mmHg 80%
    09:00 +13°C° 0 mm 9 m/s 755 mmHg 78%
    10:00 +15°C° 0 mm 8 m/s 755 mmHg 77%
    11:00 +15°C° 0.4 mm 7 m/s 755 mmHg 75%
    12:00 +16°C° 0.4 mm 6 m/s 755 mmHg 74%
    13:00 +16°C° 0.4 mm 6 m/s 755 mmHg 73%
    14:00 +15°C° 0.3 mm 5 m/s 755 mmHg 76%
    15:00 +15°C° 0.3 mm 5 m/s 754 mmHg 78%
    16:00 +14°C° 0.3 mm 5 m/s 754 mmHg 81%
    17:00 +14°C° 0.9 mm 5 m/s 754 mmHg 84%
    18:00 +13°C° 0.9 mm 5 m/s 754 mmHg 86%
    19:00 +13°C° 0.9 mm 6 m/s 754 mmHg 88%
    20:00 +12°C° 0.5 mm 7 m/s 754 mmHg 85%
    21:00 +13°C° 0.5 mm 8 m/s 754 mmHg 82%
    22:00 +13°C° 0.5 mm 9 m/s 754 mmHg 79%
    23:00 +13°C° 0 mm 9 m/s 754 mmHg 78%

    2 Martie, Luni

    Timp Temperatura Precipitaţii Vânt Presiune Umiditate
    00:00 +12°C° 0 mm 10 m/s 754 mmHg 77%
    01:00 +12°C° 0 mm 11 m/s 754 mmHg 76%
    02:00 +12°C° 0 mm 10 m/s 754 mmHg 76%
    03:00 +12°C° 0 mm 10 m/s 754 mmHg 77%
    04:00 +12°C° 0 mm 9 m/s 754 mmHg 78%
    05:00 +12°C° 0 mm 8 m/s 754 mmHg 79%
    06:00 +12°C° 0 mm 8 m/s 754 mmHg 79%
    07:00 +11°C° 0 mm 7 m/s 754 mmHg 79%
    08:00 +12°C° 0 mm 7 m/s 754 mmHg 76%
    09:00 +14°C° 0 mm 7 m/s 754 mmHg 73%
    10:00 +15°C° 0 mm 7 m/s 754 mmHg 71%
    11:00 +15°C° 0.1 mm 7 m/s 754 mmHg 69%
    12:00 +15°C° 0.1 mm 7 m/s 753 mmHg 68%
    13:00 +16°C° 0.1 mm 7 m/s 753 mmHg 67%
    14:00 +15°C° 0.4 mm 8 m/s 752 mmHg 68%
    15:00 +15°C° 0.4 mm 9 m/s 751 mmHg 69%
    16:00 +14°C° 0.4 mm 10 m/s 750 mmHg 70%
    17:00 +13°C° 1.7 mm 12 m/s 749 mmHg 75%
    18:00 +13°C° 1.7 mm 13 m/s 748 mmHg 80%
    19:00 +11°C° 1.7 mm 15 m/s 747 mmHg 85%
    20:00 +12°C° 1.6 mm 14 m/s 746 mmHg 85%
    21:00 +13°C° 1.6 mm 13 m/s 746 mmHg 85%
    22:00 +13°C° 1.6 mm 13 m/s 745 mmHg 84%
    23:00 +13°C° 0.2 mm 11 m/s 746 mmHg 83%

    3 Martie, Marţi

    Timp Temperatura Precipitaţii Vânt Presiune Umiditate
    00:00 +12°C° 0.2 mm 10 m/s 746 mmHg 81%
    01:00 +12°C° 0.2 mm 9 m/s 746 mmHg 79%
    02:00 +11°C° 0.2 mm 7 m/s 746 mmHg 78%
    03:00 +12°C° 0.2 mm 5 m/s 746 mmHg 77%
    04:00 +12°C° 0.2 mm 3 m/s 747 mmHg 76%
    05:00 +12°C° 0 mm 4 m/s 747 mmHg 77%
    06:00 +12°C° 0 mm 4 m/s 747 mmHg 77%
    07:00 +10°C° 0 mm 5 m/s 748 mmHg 77%
    08:00 +11°C° 0 mm 6 m/s 748 mmHg 73%
    09:00 +13°C° 0 mm 6 m/s 748 mmHg 69%
    10:00 +14°C° 0 mm 7 m/s 748 mmHg 64%
    11:00 +14°C° 0 mm 7 m/s 748 mmHg 62%
    12:00 +14°C° 0 mm 7 m/s 748 mmHg 59%
    13:00 +14°C° 0 mm 7 m/s 748 mmHg 56%
    14:00 +14°C° 0 mm 6 m/s 748 mmHg 58%
    15:00 +14°C° 0 mm 5 m/s 748 mmHg 59%
    16:00 +14°C° 0 mm 4 m/s 748 mmHg 60%
    17:00 +13°C° 0 mm 4 m/s 748 mmHg 62%
    18:00 +12°C° 0 mm 3 m/s 748 mmHg 64%
    19:00 +12°C° 0 mm 2 m/s 749 mmHg 66%
    20:00 +12°C° 0 mm 2 m/s 749 mmHg 67%
    21:00 +12°C° 0 mm 2 m/s 750 mmHg 67%
    22:00 +10°C° 0 mm 2 m/s 751 mmHg 68%
    23:00 +10°C° 0 mm 4 m/s 751 mmHg 70%

    4 Martie, Miercuri

    Timp Temperatura Precipitaţii Vânt Presiune Umiditate
    00:00 +8°C° 0 mm 5 m/s 751 mmHg 73%
    01:00 +8°C° 0 mm 6 m/s 751 mmHg 75%
    02:00 +7°C° 0 mm 6 m/s 751 mmHg 76%
    03:00 +6°C° 0 mm 7 m/s 752 mmHg 77%
    04:00 +6°C° 0 mm 7 m/s 752 mmHg 78%
    05:00 +5°C° 0 mm 6 m/s 752 mmHg 78%
    06:00 +5°C° 0 mm 6 m/s 752 mmHg 78%
    07:00 +5°C° 0 mm 6 m/s 753 mmHg 78%
    08:00 +7°C° 0 mm 6 m/s 753 mmHg 72%
    09:00 +8°C° 0 mm 6 m/s 753 mmHg 67%
    10:00 +9°C° 0 mm 6 m/s 753 mmHg 61%
    11:00 +10°C° 0 mm 7 m/s 753 mmHg 58%
    12:00 +11°C° 0 mm 7 m/s 754 mmHg 55%
    13:00 +12°C° 0 mm 8 m/s 754 mmHg 52%
    14:00 +12°C° 0 mm 7 m/s 753 mmHg 53%
    15:00 +12°C° 0 mm 7 m/s 753 mmHg 54%
    16:00 +12°C° 0 mm 7 m/s 753 mmHg 55%
    17:00 +11°C° 0 mm 6 m/s 753 mmHg 57%
    18:00 +12°C° 0 mm 5 m/s 753 mmHg 58%
    19:00 +11°C° 0 mm 4 m/s 754 mmHg 60%
    20:00 +11°C° 0 mm 3 m/s 754 mmHg 58%
    21:00 +12°C° 0 mm 2 m/s 754 mmHg 57%
    22:00 +13°C° 0 mm 2 m/s 754 mmHg 56%
    23:00 +12°C° 0 mm 2 m/s 753 mmHg 58%
    Arată mai mult